LUCAS (JDRS-1)

Last updated on Mon Oct 14 2024 00:02:41 GMT+0000 (Coordinated Universal Time)

1 47202U 20089A 24287.52757626 -.00000238 00000+0 00000+0 0 9999 2 47202 0.0112 116.8825 0002389 68.7640 117.6394 1.00274053 14283
UTC large
Height (km)
Speed (km/s)
/
Latitude / Longitude
Inclination (degrees)
Orbital Period (minutes)
Azimuth
Elevation
Range (km)
Doppler Factor

Next 0 passes for location: London (51.5072 / 0.1276)

Sorry there are no passes over London.